[[{"header":{"parameterUnit":"m.s-1","parameterCategory":1,"la1":30.2991,"la2":30.254,"lo1":-89.0895,"lo2":-89.0444,"dy":0.0017,"dx":0.0017,"nx":28,"ny":28,"refTime":"2025-03-22T09:00:00:Z","depth":0,"parameterNumber":2,"parameterNumberName":"U-component_of_WINDS"},"data":[0,0,0,0,0,0,0,0,0,0,0,0,0,0,0,0,0,0,0,0,0,0,0,0,0,0,0,0,0,0,0,0,0,0,0,0,0,0,0,0,0,0,0,0,0,0,0,0,0,0,0,0,0,0,0,0,0,0,-1.2265,-1.2265,0,-1.2302,-1.2302,-1.2303,-1.2317,-1.2317,-1.2316,-1.2316,-1.2353,-1.2354,-1.2356,0,0,0,0,0,0,0,0,0,0,0,0,0,-1.2205,-1.2206,-1.2265,-1.2265,-1.2266,-1.2302,-1.2302,-1.2303,-1.2317,-1.2317,-1.2316,-1.2316,-1.2353,-1.2354,-1.2356,0,0,0,0,0,0,0,0,0,0,0,0,0,-1.2235,-1.2206,-1.2265,-1.2277,-1.2279,-1.2302,-1.2302,-1.2303,-1.2317,-1.2317,-1.2316,-1.2316,-1.2353,-1.2354,-1.2356,-1.2369,0,0,-1.2361,-1.2362,0,0,0,0,0,0,0,0,-1.2234,-1.2238,-1.2275,-1.2276,-1.2278,-1.2305,-1.2295,-1.2325,-1.2317,-1.2302,-1.2316,-1.2316,-1.2337,-1.234,-1.2347,-1.2371,-1.2373,-1.2361,-1.2362,-1.2363,-1.2363,0,0,0,0,0,0,0,-1.2232,-1.2236,-1.228,-1.2275,-1.2277,-1.228,-1.2284,-1.2301,-1.232,-1.2303,-1.2305,-1.2309,-1.2338,-1.2346,-1.2348,-1.2373,-1.2361,-1.2362,-1.2363,-1.2364,-1.241,-1.241,0,0,0,0,0,0,-1.2227,-1.2234,-1.2278,-1.2281,-1.2255,-1.2282,-1.2286,-1.2296,-1.232,-1.2324,-1.2309,-1.2309,-1.2343,-1.2346,-1.235,-1.2367,-1.2363,-1.2364,-1.2365,-1.2409,-1.241,-1.241,0,0,0,0,0,0,-1.2226,-1.2231,-1.2277,-1.2258,-1.2264,-1.2283,-1.2294,-1.2297,-1.2305,-1.2324,-1.2328,-1.2313,-1.2343,-1.2347,-1.2364,-1.2368,-1.2365,-1.2366,-1.2409,-1.2409,-1.241,-1.2402,0,0,0,0,0,0,-1.2224,-1.2231,-1.2236,-1.2258,-1.2265,-1.2291,-1.2294,-1.2298,-1.2308,-1.2309,-1.2329,-1.2333,-1.2343,-1.2362,-1.2366,-1.2371,-1.2368,-1.2409,-1.2409,-1.241,-1.2402,-1.2402,-1.2402,0,0,0,0,0,-1.2222,-1.2233,-1.2237,-1.2242,-1.2272,-1.2291,-1.2295,-1.2308,-1.2308,-1.2314,-1.2326,-1.2332,-1.2367,-1.2363,-1.2368,-1.2373,-1.2409,-1.2409,-1.241,-1.2402,-1.2402,-1.2402,0,0,0,0,0,0,-1.2211,-1.2236,-1.224,-1.2258,-1.2272,-1.2294,-1.2301,-1.2307,-1.2322,-1.2322,-1.2337,-1.2341,-1.2357,-1.2367,-1.2362,-1.2388,-1.2388,-1.239,-1.2381,-1.2381,-1.2381,-1.2378,-1.2369,0,0,0,0,0,-1.221,-1.2224,-1.2245,-1.2258,-1.2266,-1.2282,-1.2291,-1.2299,-1.2315,-1.2321,-1.2335,-1.2349,-1.2364,-1.2373,-1.2387,-1.2403,-1.2408,-1.2409,-1.2409,-1.2409,-1.241,-1.2419,-1.242,-1.2411,-1.2411,-1.2411,0,0,-1.221,-1.2225,-1.2233,-1.2257,-1.2269,-1.2282,-1.2287,-1.2301,-1.2312,-1.2323,-1.234,-1.235,-1.2367,-1.2384,-1.2392,-1.2393,-1.2413,-1.241,-1.2409,-1.241,-1.2419,-1.242,-1.2421,-1.2412,-1.2412,-1.2412,0,0,-1.2215,-1.2228,-1.2241,-1.2253,-1.2271,-1.2282,-1.2285,-1.2306,-1.2313,-1.233,-1.2339,-1.2351,-1.2376,-1.2387,-1.2397,-1.2406,-1.2412,-1.2411,-1.2411,-1.2419,-1.242,-1.242,-1.2423,-1.2424,-1.2412,-1.2412,-1.2411,0,-1.2212,-1.2233,-1.2246,-1.226,-1.227,-1.2281,-1.2294,-1.2305,-1.2327,-1.2334,-1.2334,-1.2365,-1.2378,-1.2397,-1.2399,-1.2406,-1.241,-1.2408,-1.2419,-1.2419,-1.242,-1.2423,-1.2424,-1.2411,-1.2411,-1.2411,-1.2411,0,-1.2228,-1.2242,-1.225,-1.2271,-1.2282,-1.2295,-1.231,-1.232,-1.2327,-1.2338,-1.2355,-1.237,-1.2387,-1.2393,-1.24,-1.2413,-1.2413,-1.2416,-1.2417,-1.242,-1.2423,-1.2425,-1.2411,-1.2411,-1.2411,-1.2411,0,0,-1.2227,-1.2256,-1.2258,-1.2268,-1.2289,-1.23,-1.2314,-1.2331,-1.2338,-1.2353,-1.2365,-1.2385,-1.2388,-1.2398,-1.2407,-1.2415,-1.2421,-1.2417,-1.2417,-1.2417,-1.2436,-1.2433,-1.2434,-1.2425,-1.2425,-1.2425,-1.2434,0,-1.2235,-1.226,-1.2272,-1.2291,-1.2305,-1.2315,-1.2327,-1.2341,-1.2351,-1.2364,-1.2375,-1.2389,-1.2392,-1.2398,-1.2406,-1.2418,-1.2425,-1.2418,-1.2435,-1.2436,-1.243,-1.2436,-1.2433,-1.2441,-1.2435,-1.2436,-1.2436,0,-1.2248,-1.2263,-1.2283,-1.2303,-1.2309,-1.2319,-1.2336,-1.2348,-1.2363,-1.237,-1.2382,-1.239,-1.2404,-1.2404,-1.2424,-1.2419,-1.2427,-1.2434,-1.2434,-1.2436,-1.2436,-1.2438,-1.2443,-1.2444,-1.2438,-1.2438,-1.2438,0,-1.2245,-1.227,-1.2286,-1.2294,-1.2317,-1.2323,-1.2333,-1.2349,-1.2359,-1.2373,-1.2379,-1.2395,-1.2404,-1.2416,-1.2428,-1.2427,-1.2446,-1.2447,-1.2452,-1.2452,-1.2455,-1.2455,-1.2462,-1.2461,-1.2461,-1.2461,-1.2461,0,-1.2253,-1.2265,-1.2285,-1.2294,-1.2308,-1.2322,-1.2335,-1.2345,-1.2359,-1.2371,-1.2381,-1.2391,-1.2407,-1.2419,-1.2429,-1.2444,-1.2447,-1.2453,-1.2456,-1.2452,-1.2451,-1.2457,-1.2457,-1.2461,-1.2461,-1.2461,-1.2461,0,-1.2252,-1.2266,-1.2283,-1.2303,-1.2309,-1.2318,-1.2335,-1.2345,-1.2355,-1.237,-1.2374,-1.2391,-1.2406,-1.2419,-1.2439,-1.2446,-1.246,-1.2463,-1.2455,-1.2456,-1.246,-1.2459,-1.2471,-1.2473,-1.247,-1.247,-1.247,0,-1.2256,-1.2265,-1.2286,-1.2295,-1.2305,-1.2318,-1.2328,-1.2342,-1.2352,-1.237,-1.2377,-1.2393,-1.2407,-1.243,-1.2444,-1.2459,-1.2462,-1.2465,-1.2465,-1.2461,-1.2462,-1.2461,-1.2462,-1.2465,-1.2465,-1.2465,-1.2465,0,-1.2261,-1.2267,-1.2281,-1.2297,-1.2309,-1.2322,-1.2336,-1.2342,-1.2358,-1.2368,-1.2384,-1.2394,-1.2415,-1.243,-1.2447,-1.2457,-1.2464,-1.2465,-1.2467,-1.2464,-1.2458,-1.2461,-1.2454,-1.2465,-1.2465,-1.2465,-1.2465,-1.2465,-1.2262,-1.2271,-1.2288,-1.2302,-1.2314,-1.2327,-1.2336,-1.2348,-1.2362,-1.2379,-1.2387,-1.2402,-1.2418,-1.2441,-1.2451,-1.2463,-1.2464,-1.2467,-1.2468,-1.2468,-1.2468,-1.2457,-1.2466,-1.2466,-1.2466,-1.2466,-1.2466,0,-1.2268,-1.2279,-1.2292,-1.2311,-1.2323,-1.2328,-1.2344,-1.2353,-1.2367,-1.2381,-1.2394,-1.2411,-1.2426,-1.2441,-1.2457,-1.2464,-1.2468,-1.2468,-1.2467,-1.2469,-1.2466,-1.2462,-1.2465,-1.2465,-1.2465,-1.2465,-1.2465,-1.2465,-1.2272,-1.2287,-1.2295,-1.2316,-1.2327,-1.2343,-1.2351,-1.2362,-1.2374,-1.2393,-1.2406,-1.2415,-1.243,-1.2446,-1.246,-1.2464,-1.247,-1.2469,-1.2474,-1.247,-1.247,-1.247,-1.2467,-1.247,-1.247,-1.2476,-1.2476,-1.2476]},{"header":{"parameterUnit":"m.s-1","parameterCategory":1,"la1":30.2991,"la2":30.254,"lo1":-89.0895,"lo2":-89.0444,"dy":0.0017,"dx":0.0017,"nx":28,"ny":28,"refTime":"2025-03-22T09:00:00:Z","depth":0,"parameterNumber":3,"parameterNumberName":"V-component_of_WINDS"},"data":[0,0,0,0,0,0,0,0,0,0,0,0,0,0,0,0,0,0,0,0,0,0,0,0,0,0,0,0,0,0,0,0,0,0,0,0,0,0,0,0,0,0,0,0,0,0,0,0,0,0,0,0,0,0,0,0,0,0,5.4683,5.4683,0,5.4761,5.4762,5.4763,5.475,5.4749,5.4747,5.4746,5.4821,5.4824,5.4827,0,0,0,0,0,0,0,0,0,0,0,0,0,5.4516,5.452,5.4683,5.4684,5.4685,5.4761,5.4762,5.4763,5.475,5.4749,5.4747,5.4746,5.482,5.4823,5.4827,0,0,0,0,0,0,0,0,0,0,0,0,0,5.4591,5.4521,5.4682,5.4688,5.4689,5.4761,5.4762,5.4763,5.4751,5.4749,5.4747,5.4745,5.4818,5.4823,5.4828,5.4898,0,0,5.4843,5.4845,0,0,0,0,0,0,0,0,5.4587,5.4597,5.4686,5.4687,5.4689,5.4744,5.4731,5.4808,5.4751,5.4727,5.4746,5.4744,5.4796,5.4803,5.4822,5.4901,5.4904,5.4843,5.4846,5.4848,5.4849,0,0,0,0,0,0,0,5.4582,5.4594,5.4713,5.4687,5.4689,5.4684,5.4693,5.4745,5.4772,5.4729,5.4728,5.4738,5.4797,5.4817,5.4823,5.4906,5.4843,5.4847,5.485,5.4852,5.5048,5.505,0,0,0,0,0,0,5.4576,5.4589,5.4711,5.4716,5.4632,5.4689,5.4698,5.4728,5.4771,5.4776,5.474,5.4737,5.481,5.4818,5.4826,5.4912,5.4848,5.4853,5.4855,5.5046,5.5049,5.5051,0,0,0,0,0,0,5.4572,5.4587,5.4708,5.4653,5.4668,5.4694,5.4728,5.4731,5.4751,5.4779,5.4783,5.4756,5.4809,5.4819,5.4881,5.4915,5.4855,5.4859,5.5043,5.5047,5.505,5.5085,0,0,0,0,0,0,5.4568,5.4586,5.4614,5.4653,5.4671,5.4763,5.473,5.4734,5.476,5.4758,5.4796,5.48,5.4808,5.4874,5.4886,5.492,5.4863,5.504,5.5045,5.5049,5.5081,5.5089,5.5096,0,0,0,0,0,5.4562,5.4619,5.4615,5.463,5.4707,5.4765,5.4775,5.4784,5.4763,5.4791,5.4809,5.4799,5.4909,5.488,5.4893,5.493,5.5038,5.5043,5.5048,5.5077,5.5087,5.5096,0,0,0,0,0,0,5.4579,5.4624,5.462,5.4692,5.4725,5.4763,5.4798,5.4794,5.4832,5.4828,5.4836,5.4845,5.4908,5.4925,5.4892,5.5001,5.497,5.4978,5.4988,5.4998,5.5005,5.5,5.4867,0,0,0,0,0,5.4592,5.4638,5.4673,5.4733,5.475,5.4771,5.4797,5.4802,5.4835,5.4848,5.4871,5.4903,5.4944,5.4972,5.5011,5.5083,5.5091,5.5114,5.5122,5.5128,5.5135,5.5176,5.5187,5.5068,5.5068,5.5068,0,0,5.4618,5.4648,5.4676,5.4737,5.4763,5.4809,5.4783,5.4832,5.4866,5.4855,5.4916,5.4934,5.4969,5.5037,5.5067,5.5053,5.517,5.5135,5.514,5.5143,5.5182,5.5193,5.5203,5.5072,5.5071,5.507,0,0,5.4689,5.4716,5.477,5.4797,5.4838,5.4852,5.4865,5.4904,5.4916,5.4978,5.4971,5.501,5.5082,5.5108,5.5131,5.5214,5.5206,5.5226,5.5266,5.5306,5.5315,5.5323,5.5354,5.5365,5.5233,5.5233,5.5233,0,5.4715,5.4786,5.4797,5.4848,5.4876,5.4871,5.4925,5.495,5.5001,5.5019,5.5003,5.5094,5.5117,5.5192,5.5212,5.523,5.5245,5.5222,5.5313,5.5322,5.533,5.5359,5.537,5.5235,5.5235,5.5235,5.5235,0,5.4817,5.4866,5.4905,5.4957,5.4989,5.5041,5.5059,5.5089,5.5091,5.5106,5.5169,5.5198,5.5244,5.5262,5.5263,5.5337,5.5327,5.5311,5.5281,5.5343,5.5371,5.5382,5.5239,5.5238,5.5237,5.5237,0,0,5.4901,5.4961,5.4975,5.5,5.5045,5.5082,5.5134,5.5182,5.5208,5.5243,5.5287,5.5348,5.5335,5.5361,5.5365,5.54,5.5465,5.538,5.5381,5.5396,5.5549,5.5561,5.5574,5.546,5.5462,5.5464,5.5547,0,5.4978,5.5072,5.5084,5.5167,5.5213,5.5209,5.5254,5.5286,5.5302,5.5342,5.5359,5.5403,5.5382,5.5398,5.5432,5.545,5.5496,5.5444,5.55,5.5502,5.5493,5.5589,5.5601,5.5678,5.5557,5.5559,5.5561,0,5.5079,5.5121,5.521,5.5251,5.527,5.5311,5.5356,5.5395,5.5431,5.544,5.547,5.547,5.5523,5.549,5.5563,5.5527,5.555,5.5563,5.5566,5.5573,5.5536,5.5598,5.5702,5.5714,5.5578,5.5576,5.5575,0,5.5134,5.5211,5.5275,5.5296,5.5344,5.5373,5.5395,5.5429,5.5458,5.5496,5.5515,5.5558,5.5583,5.5616,5.5628,5.5603,5.57,5.5668,5.5709,5.5709,5.573,5.5729,5.584,5.5743,5.5743,5.5743,5.5743,0,5.5219,5.5273,5.53,5.5339,5.54,5.5413,5.5472,5.5492,5.5523,5.5565,5.5563,5.5602,5.5615,5.5656,5.5665,5.5724,5.5735,5.5743,5.5745,5.5744,5.5743,5.576,5.5756,5.5746,5.5745,5.5745,5.5744,0,5.529,5.531,5.538,5.5421,5.5433,5.5476,5.5511,5.5548,5.5564,5.5617,5.563,5.5655,5.5703,5.5718,5.5775,5.5782,5.5852,5.5848,5.584,5.5841,5.5882,5.5878,5.6009,5.6027,5.5917,5.5918,5.5919,0,5.5343,5.5386,5.5433,5.5462,5.5486,5.5532,5.5562,5.5576,5.5607,5.5652,5.5684,5.5733,5.5772,5.5849,5.5871,5.5915,5.5914,5.5956,5.592,5.5918,5.5916,5.5914,5.5919,5.5963,5.5965,5.5966,5.5966,0,5.5437,5.5445,5.549,5.5538,5.5575,5.5613,5.5649,5.5673,5.5692,5.5726,5.5777,5.5808,5.5869,5.5917,5.5962,5.5982,5.5978,5.5978,5.599,5.599,5.5984,5.5989,5.586,5.5975,5.5974,5.5973,5.5973,5.5972,5.5501,5.554,5.558,5.563,5.5659,5.5694,5.5732,5.5754,5.5797,5.5849,5.5854,5.5909,5.5944,5.6005,5.6028,5.607,5.6058,5.6075,5.6079,5.6084,5.6088,5.5977,5.6078,5.6078,5.6078,5.6078,5.6077,0,5.5596,5.5622,5.5668,5.5721,5.576,5.5754,5.5795,5.5828,5.5877,5.5912,5.5952,5.6011,5.6058,5.6084,5.6131,5.616,5.6159,5.6172,5.617,5.6175,5.6096,5.6081,5.6172,5.6172,5.6172,5.6172,5.6172,5.6172,5.565,5.5715,5.5728,5.5808,5.5833,5.5889,5.5913,5.5945,5.5973,5.604,5.608,5.6097,5.6129,5.6178,5.6221,5.6227,5.6245,5.626,5.6265,5.619,5.618,5.6171,5.6158,5.6263,5.6263,5.6341,5.6342,5.6342]}]]